Location: Knowlton
(51.2333°N, 1.2667°E)
Time: 04:20:35
(UTC+00:00)

USA 281 - Pass Details

Date: 18 April 2021
Orbit: 1078 x 1081 km, 106.0° (Epoch: 02 May)

Event Time Altitude Azimuth Distance (km) Brightness Sun altitude
Exits shadow 23:33:05 47° 115° (ESE) 1,400 3.5 -27.4°
Maximum altitude 23:34:54 65° 56° (NE) 1,180 3.4 -27.5°
Drops below altitude 10° 23:41:24 10° 337° (NNW) 2,931 6.4 -27.5°
Sets 23:43:56 0° 335° (NNW) 3,891 7.2 -27.6°
